Norfolk, VA

1:37 AM EDT on May 23, 2017 (GMT -0400)
Norfolk International

Weather History for KORF - December, 2012

Change the Weather History Date:

Friday, December 21, 2012

  Actual Average Record
Temperature  
Mean Temperature 50 °F 43 °F  
Max Temperature 63 °F 51 °F 73 °F (2013)
Min Temperature 37 °F 35 °F 11 °F (1942)
Degree Days  
Heating Degree Days 15 22  
Month to date heating degree days 257 416  
Since 1 July heating degree days 886 946  
Cooling Degree Days 0 0  
Month to date cooling degree days 2 0  
Year to date cooling degree days 1852 1628  
Moisture  
Dew Point 36 °F    
Average Humidity 66    
Maximum Humidity 93    
Minimum Humidity 38    
Precipitation  
Precipitation 0.41 in 0.11 in 1.55 in (1878)
Month to date precipitation 1.54 2.23  
Year to date precipitation 45.41 45.50  
Snow  
Snow 0.00 in 0.00 in 3.60 in (1962)
Month to date snowfall 0.0 0.5  
Since 1 July snowfall 0.0 0.5  
Snow Depth 0.00 in    
Sea Level Pressure  
Sea Level Pressure 29.49 in    
Wind  
Wind Speed 16 mph (WSW)    
Max Wind Speed 30 mph    
Max Gust Speed 40 mph    
Visibility 9 miles    
Events Rain    
T = Trace of Precipitation, MM = Missing Value Source: NWS Daily Summary

Daily Weather History Graph

Daily Weather History Graph

Search for Another Location

Airport or City:

Trip Planner

Search our weather history database for the weather conditions in past years. The results will help you decide how hot, cold, wet, or windy it might be!

Date:

Astronomy

Dec. 21, 2012 Rise Set
Actual Time 7:14 AM EST 4:52 PM EST
Civil Twilight 6:45 AM EST 5:21 PM EST
Nautical Twilight 6:12 AM EST 5:53 PM EST
Astronomical Twilight 5:41 AM EST 6:25 PM EST
Moon 12:32 PM EST (12/21) 1:05 AM EST (12/21)
Length of Visible Light 10h 35m
Length of Day
9h 37m
Waxing Gibbous, 64% of the Moon is Illuminated
Dec 21
Waxing Gibbous
Dec 28
Full
Jan 4
Last Quarter
Jan 11
New
Jan 18
First Quarter

Hourly Weather History & Observations

Time (EST) Temp. Windchill Dew Point Humidity Pressure Visibility Wind Dir Wind Speed Gust Speed Precip Events Conditions
12:51 AM 60.1 °F - 57.0 °F 90% 29.48 in 4.0 mi SSE 19.6 mph 32.2 mph 0.13 in Rain Rain
1:24 AM 60.8 °F - 57.2 °F 88% 29.45 in 6.0 mi South 18.4 mph 40.3 mph 0.09 in   Overcast
1:51 AM 62.1 °F - 59.0 °F 90% 29.40 in 4.0 mi South 23.0 mph 35.7 mph 0.16 in Rain Light Rain
1:58 AM 62.6 °F - 59.0 °F 88% 29.40 in 5.0 mi South 19.6 mph 40.3 mph 0.02 in Rain Light Rain
2:51 AM 62.1 °F - 59.0 °F 90% 29.36 in 5.0 mi South 17.3 mph 28.8 mph 0.06 in Rain Rain
2:54 AM 62.6 °F - 59.0 °F 88% 29.36 in 4.0 mi South 20.7 mph 29.9 mph 0.00 in Rain Light Rain
3:08 AM 62.6 °F - 59.0 °F 88% 29.34 in 4.0 mi South 20.7 mph 31.1 mph 0.04 in Rain Rain
3:39 AM 62.6 °F - 60.8 °F 94% 29.34 in 10.0 mi SSW 25.3 mph 34.5 mph 0.08 in   Overcast
3:51 AM 63.0 °F - 60.1 °F 90% 29.34 in 8.0 mi SW 19.6 mph 29.9 mph 0.08 in Rain Light Rain
4:23 AM 57.2 °F - 48.2 °F 72% 29.36 in 10.0 mi WSW 16.1 mph 27.6 mph 0.02 in   Mostly Cloudy
4:51 AM 55.9 °F - 48.9 °F 77% 29.38 in 10.0 mi WSW 16.1 mph 21.9 mph 0.02 in   Mostly Cloudy
5:51 AM 53.1 °F - 44.1 °F 71% 29.39 in 10.0 mi WSW 15.0 mph 25.3 mph N/A   Scattered Clouds
6:51 AM 48.2 °F - 33.8 °F 58% 29.42 in 10.0 mi West 13.8 mph 27.6 mph N/A   Mostly Cloudy
7:51 AM 46.9 °F - 30.0 °F 52% 29.47 in 10.0 mi West 18.4 mph 34.5 mph N/A   Overcast
8:51 AM 46.0 °F 39.0 °F 28.9 °F 51% 29.48 in 10.0 mi West 17.3 mph 32.2 mph N/A   Overcast
9:51 AM 46.0 °F 38.3 °F 28.0 °F 50% 29.51 in 10.0 mi WSW 20.7 mph 34.5 mph N/A   Overcast
10:51 AM 46.9 °F - 27.0 °F 46% 29.50 in 10.0 mi West 18.4 mph 27.6 mph N/A   Overcast
11:51 AM 46.9 °F - 26.1 °F 44% 29.49 in 10.0 mi WSW 13.8 mph 27.6 mph N/A   Overcast
12:51 PM 46.0 °F 39.3 °F 26.1 °F 46% 29.49 in 10.0 mi West 16.1 mph 28.8 mph N/A   Overcast
1:51 PM 48.0 °F - 26.1 °F 42% 29.49 in 10.0 mi WSW 16.1 mph 26.5 mph N/A   Overcast
2:51 PM 46.0 °F 39.0 °F 23.0 °F 40% 29.50 in 10.0 mi West 17.3 mph 29.9 mph N/A   Overcast
3:51 PM 45.0 °F 38.5 °F 21.9 °F 40% 29.52 in 10.0 mi West 13.8 mph 26.5 mph N/A   Overcast
4:51 PM 44.6 °F 37.8 °F 21.2 °F 39% 29.54 in 10.0 mi West 15.0 mph 28.8 mph N/A   Overcast
5:51 PM 43.0 °F 35.4 °F 21.0 °F 42% 29.57 in 10.0 mi WSW 16.1 mph 25.3 mph N/A   Overcast
6:51 PM 42.1 °F 33.9 °F 21.9 °F 45% 29.60 in 10.0 mi West 17.3 mph 25.3 mph N/A   Partly Cloudy
7:51 PM 41.0 °F 33.5 °F 21.9 °F 47% 29.62 in 10.0 mi West 13.8 mph 23.0 mph N/A   Partly Cloudy
8:51 PM 39.2 °F 31.2 °F 21.2 °F 49% 29.63 in 10.0 mi West 13.8 mph 20.7 mph N/A   Overcast
9:51 PM 39.0 °F 32.3 °F 19.9 °F 46% 29.65 in 10.0 mi West 10.4 mph 23.0 mph N/A   Clear
10:51 PM 37.9 °F 30.0 °F 19.9 °F 48% 29.67 in 10.0 mi WSW 12.7 mph 25.3 mph N/A   Clear
11:51 PM 37.9 °F 30.0 °F 21.0 °F 51% 29.67 in 10.0 mi West 12.7 mph 23.0 mph N/A   Clear